GFSFLT1_925_temp_273.txt.gz
Temp
41 41 41 41 39 38 37 35 34 33 32 29 27 27 26 25 25 24 25 24 24 22 21 21 22 21 22 21 20 21 21 22 23
42 42 42 41 40 38 37 35 33 32 31 29 28 27 26 26 25 24 24 23 22 23 21 22 21 20 19 19 20 21 21 22 22
42 42 42 41 40 39 37 35 34 32 31 30 28 28 27 26 24 24 24 23 22 23 23 22 20 20 21 20 21 21 22 22 23
42 41 40 40 40 39 37 35 34 32 31 30 29 28 28 27 25 24 23 23 23 23 23 22 21 21 21 21 21 22 22 21 23
41 40 40 39 39 38 36 35 34 32 31 30 29 29 28 27 26 25 24 24 23 23 23 23 23 22 22 22 22 23 22 22 23
41 39 39 39 39 37 35 34 33 32 30 30 30 28 28 27 26 25 25 25 24 24 24 24 24 23 23 23 23 22 22 23 23
41 39 38 39 39 37 35 33 32 31 30 30 30 29 29 28 26 26 26 25 25 25 24 24 24 24 23 23 23 23 24 24 23
39 40 39 38 38 36 34 32 31 30 30 29 29 28 29 27 27 27 26 25 25 25 25 25 24 24 24 24 24 24 24 24 23
38 39 39 39 37 36 34 32 31 30 30 28 28 27 28 26 25 26 27 26 26 26 25 26 25 25 25 25 26 26 24 24 23
37 37 37 38 37 36 34 33 31 30 29 28 27 26 27 26 26 26 26 25 25 25 25 25 25 25 24 25 26 23 23 24 24
35 35 35 36 37 37 34 33 32 31 30 28 27 26 27 26 25 25 25 25 25 24 25 25 25 24 25 26 25 23 23 22 22
33 33 34 35 36 37 35 34 32 31 30 28 27 27 26 26 25 25 25 25 25 25 24 24 24 25 25 25 24 23 22 22 23
33 33 32 33 34 34 34 33 32 31 30 29 28 27 26 26 26 26 26 25 25 24 25 24 25 25 25 24 24 23 22 22 24
33 32 32 32 33 33 33 33 32 31 30 29 29 28 27 26 26 26 26 25 25 25 24 25 25 25 25 24 23 22 22 22 22
32 32 31 32 31 31 31 30 30 31 30 29 29 28 27 26 25 25 26 25 24 24 24 24 24 24 24 24 23 22 22 22 22
31 31 30 30 30 29 28 28 28 29 29 27 27 27 26 26 25 25 25 24 24 24 23 23 24 23 23 23 24 23 20 21 21
31 30 30 29 28 28 26 25 25 25 25 25 25 25 25 24 24 24 24 21 20 22 21 21 20 21 21 23 23 23 20 19 20
30 29 28 28 27 26 26 24 24 24 24 23 23 24 23 22 22 21 20 19 18 20 20 19 19 20 21 22 23 23 22 19 19
27 27 27 27 26 26 26 25 25 22 22 23 23 23 24 24 25 23 21 20 19 19 19 20 19 19 20 21 21 21 21 20 20
24 26 25 25 25 25 24 25 24 23 22 21 21 21 22 22 22 22 22 21 21 21 21 20 19 21 19 20 20 20 19 19 19

GFSFLT1_925_temp_276.txt.gz
Temp
41 41 41 40 39 38 37 36 35 33 32 28 27 27 26 25 25 24 24 25 25 24 23 23 22 21 22 21 21 22 21 21 21
41 41 41 41 40 39 38 37 35 34 33 29 28 28 27 25 26 25 25 24 24 24 23 22 21 22 21 20 20 20 21 21 21
42 42 42 41 41 40 39 37 36 34 33 31 29 29 27 26 25 25 24 24 24 23 23 22 23 22 21 20 21 20 21 21 21
42 42 41 41 41 40 39 37 36 34 33 32 29 29 28 27 26 25 24 24 23 23 23 22 22 22 21 21 21 21 21 21 22
41 41 40 41 40 39 38 37 36 34 32 31 30 30 29 28 27 25 25 24 23 23 23 23 23 22 21 21 22 22 21 22 22
39 40 40 40 40 38 36 35 34 33 31 31 31 30 29 28 26 25 25 24 24 24 23 23 23 22 22 22 22 22 22 22 22
40 39 38 40 39 38 35 34 33 32 31 31 31 30 29 29 26 25 25 24 24 24 24 24 23 23 23 22 22 22 23 23 23
40 40 38 39 38 35 33 33 32 31 31 30 30 30 29 29 27 26 26 25 25 25 24 24 24 24 23 23 23 23 23 23 23
39 39 40 39 37 35 33 32 31 30 30 29 29 29 29 28 27 27 26 25 25 25 25 24 24 24 24 23 24 25 25 24 23
38 39 39 38 37 35 34 32 31 30 30 29 29 28 28 27 26 26 26 26 25 25 25 25 25 25 24 24 24 25 25 24 23
37 36 36 36 37 36 35 33 32 31 30 29 28 27 27 26 25 25 26 26 25 25 25 25 25 25 24 24 24 24 24 24 24
34 34 35 35 37 37 35 34 32 31 30 29 28 27 26 26 25 25 25 25 25 25 24 24 24 24 24 24 24 24 24 23 23
34 33 34 35 35 36 35 34 33 31 30 29 28 27 26 26 25 25 25 25 25 24 24 24 24 24 24 24 25 23 23 23 23
33 33 33 33 34 33 33 33 33 32 30 29 28 27 27 26 26 25 25 25 25 25 24 24 24 24 24 24 24 23 23 23 23
33 32 32 32 32 31 30 31 31 31 31 30 29 28 27 26 26 25 25 25 25 24 24 24 24 24 24 24 24 24 23 22 23
32 32 31 30 31 29 27 26 27 27 25 27 27 28 27 26 26 25 25 25 22 19 20 21 23 24 24 23 24 23 23 22 22
31 31 30 30 29 29 27 26 26 25 24 24 24 25 25 25 24 23 22 19 19 19 21 19 20 21 23 24 24 23 22 20 21
30 30 30 28 28 27 26 25 24 23 24 24 23 24 24 23 24 22 20 20 21 20 20 21 19 20 19 20 21 23 22 22 20
27 27 28 28 27 27 26 26 24 23 23 23 23 24 24 25 25 25 23 21 20 18 18 18 19 20 20 20 20 20 21 21 20
25 26 26 25 25 25 25 25 24 23 23 22 22 22 22 23 23 24 24 23 22 21 20 20 20 20 19 18 19 19 19 20 20

GFSFLT1_925_temp_279.txt.gz
Temp
36 35 34 34 33 33 33 32 31 30 27 26 25 25 25 25 25 25 25 25 26 25 24 24 23 22 22 21 21 21 21 22 21
36 36 35 35 34 34 33 33 31 31 28 26 26 25 25 25 25 25 25 25 25 25 24 24 22 21 21 21 21 21 21 21 21
36 36 35 35 35 33 33 33 33 31 30 27 26 26 25 25 25 25 26 25 25 24 24 24 24 22 21 21 21 20 20 20 21
34 35 34 36 33 33 34 35 34 32 31 28 27 27 27 26 26 26 26 25 24 24 24 23 23 22 22 21 21 21 20 20 21
34 34 34 33 32 33 33 34 33 33 30 29 28 28 28 27 27 27 26 25 24 24 23 23 22 22 22 22 21 21 21 21 22
34 34 33 32 31 30 30 32 33 32 32 31 29 29 28 28 27 27 27 26 24 24 23 23 23 23 22 22 22 21 21 21 22
32 32 32 31 31 29 30 31 31 31 31 31 30 29 28 28 27 27 26 26 25 24 24 23 23 23 23 22 22 22 22 22 22
33 33 33 31 29 29 27 29 30 31 31 31 30 29 29 28 27 27 26 25 25 25 24 24 24 23 23 23 22 22 22 22 22
33 32 33 32 30 29 28 28 29 30 30 30 30 29 29 28 27 26 26 25 25 25 24 24 24 23 23 23 23 23 23 23 23
33 33 32 31 30 30 29 28 30 29 30 30 29 29 29 28 27 26 26 25 25 25 24 24 24 24 24 23 23 23 24 24 23
32 31 30 31 31 29 30 30 30 30 29 29 29 28 28 27 27 26 26 25 25 25 24 25 24 24 24 24 24 24 24 24 23
30 31 30 31 33 32 31 30 30 30 29 28 28 27 27 26 26 26 26 25 25 25 24 24 25 25 24 24 24 24 24 24 23
30 30 31 30 31 31 31 30 30 29 28 28 27 27 27 26 26 25 25 25 25 25 25 25 25 24 24 24 24 24 24 24 24
29 29 29 30 29 28 28 30 30 29 28 27 28 27 27 26 26 25 25 25 25 25 25 24 24 24 25 24 24 23 23 23 23
28 27 28 28 26 25 26 27 28 26 26 28 28 28 27 26 26 25 25 25 25 24 23 22 22 22 22 22 21 24 23 23 23
27 26 27 27 25 25 25 25 25 24 24 25 26 27 27 26 26 25 25 24 23 21 22 22 21 21 22 21 21 20 22 23 23
26 26 26 28 25 24 24 24 24 24 24 24 24 24 25 24 24 24 23 23 21 21 20 21 21 20 20 20 21 20 20 22 21
24 25 26 26 25 24 24 24 23 23 23 23 23 23 23 23 23 22 21 21 21 20 20 20 20 20 21 21 20 19 20 21 22
23 23 25 25 25 25 24 23 22 23 23 23 23 22 22 23 23 21 20 20 20 20 20 20 19 19 21 20 20 20 20 20 21
24 23 23 23 22 23 23 22 22 22 22 22 22 22 22 22 22 22 22 20 20 20 19 18 18 19 19 19 19 19 19 19 19

GFSFLT1_925_temp_285.txt.gz
Temp
29 29 29 28 28 28 28 27 26 26 25 24 24 25 25 25 25 24 24 25 25 25 25 25 25 24 24 24 23 23 23 22 22
30 30 30 29 28 28 28 28 27 27 26 25 24 24 24 24 24 24 24 25 25 25 25 25 25 24 24 23 23 22 22 21 21
31 31 31 30 28 28 29 28 28 27 27 26 26 24 24 23 24 24 24 25 25 25 25 24 24 24 22 23 20 21 22 20 20
30 30 31 30 29 29 30 29 28 28 27 26 25 25 25 25 24 25 25 25 25 24 24 25 24 22 21 21 21 21 20 20 20
31 29 31 31 29 29 29 29 29 28 27 26 26 25 24 25 24 24 24 25 25 25 24 24 24 23 22 22 21 21 21 20 20
28 31 29 29 29 27 28 28 28 28 27 27 26 25 25 24 24 24 24 25 25 25 24 24 23 23 22 22 22 21 21 21 20
28 29 29 27 26 27 28 28 28 27 27 27 26 25 25 24 25 25 25 25 25 25 24 23 23 23 23 22 22 21 21 20 20
29 29 28 28 27 26 25 26 27 27 27 27 27 26 25 26 26 26 26 25 25 25 24 23 23 22 22 22 22 21 21 21 21
30 30 34 29 27 26 25 26 26 26 26 27 27 27 27 27 26 26 26 25 25 25 24 23 23 22 22 22 22 22 22 21 21
27 30 30 29 28 27 27 26 26 26 27 28 27 27 27 27 27 26 26 25 25 24 24 23 23 23 22 22 22 22 22 22 21
27 28 28 29 27 26 27 27 27 27 28 28 27 27 27 27 27 26 26 25 25 24 24 23 23 23 23 23 23 23 23 23 22
28 26 27 29 33 29 28 27 27 28 27 27 27 26 26 27 27 26 25 25 25 24 24 24 24 23 23 23 23 23 23 23 22
26 26 26 28 30 28 27 27 27 27 26 27 26 27 27 27 27 26 26 25 25 25 24 24 24 24 24 24 24 24 23 23 23
23 24 25 27 26 27 27 27 27 26 25 26 28 28 28 27 27 27 26 26 25 25 24 24 23 24 24 23 23 23 23 23 23
23 23 22 23 23 23 25 26 26 25 25 27 27 27 26 26 26 25 25 25 24 24 23 23 23 23 23 23 22 23 23 23 23
21 21 21 21 22 21 24 26 26 24 24 25 26 26 26 26 25 25 25 24 24 23 23 23 22 22 21 22 22 22 21 21 21
17 17 17 17 19 21 20 23 25 25 25 26 26 26 25 25 24 24 24 24 24 23 22 22 21 20 19 20 21 21 21 20 20
17 17 17 18 17 19 19 22 23 24 24 25 24 23 23 23 23 23 22 22 21 21 21 20 19 19 19 19 19 21 21 19 20
16 17 17 17 17 19 19 20 21 22 23 23 23 22 22 22 22 22 21 21 20 20 20 19 19 18 18 19 19 19 19 19 19
17 18 18 17 15 18 20 20 21 21 22 22 22 22 21 21 21 21 20 20 20 19 19 19 19 18 18 18 18 18 18 19 19

GFSFLT1_925_temp_291.txt.gz
Temp
33 32 32 32 31 30 28 27 26 25 24 23 23 22 22 22 22 23 23 23 24 24 24 24 23 23 24 24 23 23 23 21 21
34 32 32 32 31 30 28 28 26 25 25 24 23 23 22 22 22 22 23 23 22 23 23 23 23 24 24 22 23 22 22 20 22
35 33 32 32 32 30 29 28 27 26 25 25 24 24 23 23 22 22 22 22 22 23 23 24 23 23 24 23 20 21 21 20 21
33 33 34 33 32 31 29 29 28 27 26 26 25 25 24 23 23 22 22 22 22 22 22 24 24 23 23 22 21 22 20 20 19
31 32 33 34 33 30 29 29 29 28 27 26 26 26 24 24 23 22 22 22 22 22 22 23 24 24 23 21 20 22 21 20 20
30 30 32 32 34 31 29 29 28 28 27 27 27 26 25 24 24 23 23 23 23 22 22 22 21 21 21 21 21 20 20 20 20
30 30 30 32 33 33 30 28 27 27 27 27 27 26 26 25 25 24 24 23 23 23 22 22 22 21 21 21 21 20 20 20 20
29 29 31 32 31 30 29 28 27 26 27 26 26 25 26 25 25 25 24 23 23 23 22 22 22 22 21 21 21 21 21 21 20
28 28 28 30 31 30 29 28 27 27 26 26 25 25 26 25 24 24 23 23 23 23 23 22 22 22 22 21 22 22 22 21 20
27 27 27 27 28 29 29 28 27 27 26 25 25 25 25 24 24 23 23 23 23 23 23 23 22 22 22 21 21 21 22 21 21
26 26 26 26 27 28 29 28 26 26 26 25 25 25 25 24 24 24 24 23 23 23 23 23 22 22 22 22 21 22 22 22 21
26 25 25 25 25 26 27 28 26 25 29 25 25 25 25 25 24 24 24 24 23 23 23 22 22 22 22 22 22 22 22 22 21
26 25 24 24 24 25 27 27 27 25 25 25 25 26 25 25 25 25 24 24 23 23 23 23 23 22 22 22 22 23 23 22 22
24 24 23 22 23 25 27 27 25 24 25 25 26 26 26 25 25 25 26 24 23 22 22 23 22 22 22 22 23 22 23 23 21
23 24 23 22 23 24 25 26 26 26 25 26 25 26 26 25 25 25 24 23 23 22 22 22 22 22 22 23 21 22 22 22 22
22 23 22 21 22 22 21 24 25 26 25 24 24 25 26 24 24 24 24 23 23 23 22 23 23 23 23 23 21 21 21 21 21
21 22 21 19 21 21 20 21 22 23 23 24 24 25 24 23 24 23 22 23 23 23 22 22 22 21 23 22 21 20 20 21 21
21 21 20 18 19 22 21 21 21 21 21 22 21 20 21 22 22 22 21 21 21 21 21 21 20 20 20 20 19 19 19 19 19
20 20 20 18 18 21 21 21 20 20 22 23 21 19 18 18 20 20 19 19 19 19 19 19 20 19 19 19 19 19 19 19 18
19 19 18 19 19 19 21 21 20 21 24 25 23 21 21 20 19 20 19 19 20 17 16 18 19 19 19 19 18 18 18 18 18